Location: Bijele Vode
(45.2833°N, 16.2000°E)
Time: 00:46:44
(UTC+00:00)

Lacrosse 5 rocket - Pass Details

Date: 17 January 2021
Orbit: 465 x 630 km, 57.0° (Epoch: 06 March)

Event Time Altitude Azimuth Distance (km) Brightness Sun altitude
Exits shadow 03:58:22 16° 22° (NNE) 1,419 3.6 -26.1°
Drops below altitude 10° 04:00:13 10° 50° (NE) 1,727 4.4 -25.8°
Sets 04:03:01 0° 72° (ENE) 2,578 5.8 -25.3°
